Regional Weather Roundup
Issued by NWS

Home | Current Version | Previous Version | Text Only | Print | Product List | Glossary Off
Versions: 1 2 3 4 5 6 7 8 9 10 11 12 13 14 15 16 17 18 19 20 21 22 23 24 25 26 27 28 29 30 31 32 33 34 35 36 37 38 39 40 41 42 43 44 45 46 47 48 49 50

000
ASUS45 KBOI 272210
RWRID

IDAHO REGIONAL WEATHER ROUNDUP
NATIONAL WEATHER SERVICE BOISE ID
400 PM MDT WED JUL 27 2016

NOTE: "FAIR" INDICATES FEW OR NO CLOUDS BELOW 12000 FEET
WITH NO SIGNIFICANT WEATHER AND/OR OBSTRUCTIONS TO VISIBILITY

IDZ012-014-272300-
SOUTHWEST IDAHO


CITY           SKY/WX    TMP DP  RH WIND       PRES   REMARKS
BOISE          SUNNY     98  42  14 N8        29.97F HX  94
CALDWELL       SUNNY     97  51  21 VRB5      29.96F HX  94
MOUNTAIN HOME  SUNNY    100  40  12 NW8       29.96F HX  95
$$

IDZ016-017-272300-
SOUTHCENTRAL IDAHO


CITY           SKY/WX    TMP DP  RH WIND       PRES   REMARKS
BURLEY         SUNNY     93  41  16 CALM      30.06F
JEROME         SUNNY     96  39  13 N5        30.06F HX  91
TWIN FALLS     SUNNY     97  37  12 NE12      30.06F HX  92
$$

IDZ019>023-272300-
SOUTHEAST IDAHO


CITY           SKY/WX    TMP DP  RH WIND       PRES   REMARKS
IDAHO FALLS    MOSUNNY   92  34  13 S12       30.13F
POCATELLO      SUNNY     94  31  10 W10       30.12F
REXBURG        SUNNY     91  33  12 SW13      30.14F
$$

IDZ006-010-011-018-031-032-272300-
CENTRAL IDAHO MOUNTAINS


CITY           SKY/WX    TMP DP  RH WIND       PRES   REMARKS
MCCALL         SUNNY     87  35  15 W10       30.17F
HAILEY         MOSUNNY   91  43  18 W8        30.17F
STANLEY          N/A     84  33  16 NW8G17    30.26F
SALMON         SUNNY     90  46  22 S5        30.01F
CHALLIS        SUNNY     92  30  11 S6G18     30.10F
$$

IDZ002-004-006-007-026-272300-
NORTHERN IDAHO


CITY           SKY/WX    TMP DP  RH WIND       PRES   REMARKS
LEWISTON       SUNNY     95  49  20 CALM      29.96F HX  92
LOWELL           N/A     95  54  25 SE5       29.94F HX  93
COEUR D`ALENE  SUNNY     91  54  27 SW5       30.01F
MULLAN PASS    PTSUNNY   73  46  38 CALM      30.27F
$$



USA.gov is the U.S. government's official web portal to all federal, state and local government web resources and services.